Wainwright, AK

5:47 AM AKDT on September 22, 2017 (GMT -0800)
Wainwright

Weather History for PAWI - October, 2013

Change the Weather History Date:

Thursday, October 3, 2013

  Actual Average (PABR) Record (PABR)
Temperature  
Mean Temperature 24 °F -  
Max Temperature 28 °F 26 °F 43 °F (1954)
Min Temperature 21 °F 18 °F -3 °F (1931)
Degree Days  
Heating Degree Days 40    
Moisture  
Dew Point 23 °F    
Average Humidity 89    
Maximum Humidity 100    
Minimum Humidity 80    
Precipitation  
Precipitation 0.00 in - - ()
Sea Level Pressure  
Sea Level Pressure 30.01 in    
Wind  
Wind Speed 4 mph (East)    
Max Wind Speed 8 mph    
Max Gust Speed -    
Visibility 6 miles    
Events Fog , Snow    
Averages and records for this station are not official NWS values.
T = Trace of Precipitation, MM = Missing Value Source: NWS Daily Summary

Daily Weather History Graph

Daily Weather History Graph

Search for Another Location

Airport or City:

Trip Planner

Search our weather history database for the weather conditions in past years. The results will help you decide how hot, cold, wet, or windy it might be!

Date:

Astronomy

Oct. 03, 2013 Rise Set
Actual Time 9:06 AM AKDT 7:48 PM AKDT
Civil Twilight 8:04 AM AKDT 8:50 PM AKDT
Nautical Twilight 6:49 AM AKDT 10:05 PM AKDT
Astronomical Twilight 5:22 AM AKDT 11:30 PM AKDT
Moon 7:31 AM AKDT (10/3) 7:08 PM AKDT (10/3)
Length of Visible Light 12h 46m
Length of Day
10h 41m
Waning Crescent, 2% of the Moon is Illuminated
Oct 3
Waning Crescent
Oct 4
New
Oct 11
First Quarter
Oct 18
Full
Oct 26
Last Quarter

Hourly Weather History & Observations

Time (AKDT) Temp. Windchill Dew Point Humidity Pressure Visibility Wind Dir Wind Speed Gust Speed Precip Events Conditions
12:01 AM 28.4 °F 20.4 °F 26.6 °F 93% 30.05 in 10.0 mi East 8.1 mph - N/A   Overcast
12:51 AM 26.6 °F 22.6 °F 26.6 °F 100% 30.05 in 2.5 mi South 3.5 mph - N/A   Overcast
12:53 AM 27.0 °F 23.0 °F 26.1 °F 96% 30.06 in 2.5 mi South 3.5 mph - N/A   Overcast
1:02 AM 26.6 °F 22.6 °F 26.6 °F 100% 30.05 in 1.5 mi South 3.5 mph - N/A   Overcast
1:14 AM 26.6 °F 21.2 °F 24.8 °F 93% 30.05 in 3.0 mi South 4.6 mph - N/A   Overcast
1:53 AM 27.0 °F 21.6 °F 24.1 °F 89% 30.06 in 8.0 mi South 4.6 mph - N/A   Overcast
2:00 AM 26.6 °F 20.0 °F 24.8 °F 93% 30.06 in 3.0 mi SSE 5.8 mph - N/A   Overcast
2:06 AM 26.6 °F 21.2 °F 24.8 °F 93% 30.06 in 1.8 mi SSE 4.6 mph - N/A   Overcast
2:12 AM 26.6 °F 21.2 °F 24.8 °F 93% 30.05 in 3.0 mi SSE 4.6 mph - N/A   Overcast
2:53 AM 26.1 °F 21.9 °F 23.0 °F 88% 30.06 in 10.0 mi South 3.5 mph - N/A   Overcast
3:53 AM 25.0 °F - 23.0 °F 92% 30.05 in 10.0 mi Calm Calm - N/A   Overcast
4:53 AM 25.0 °F 20.7 °F 21.9 °F 88% 30.05 in 7.0 mi SSW 3.5 mph - N/A   Overcast
5:53 AM 24.1 °F - 21.0 °F 88% 30.04 in 10.0 mi Calm Calm - N/A   Overcast
6:10 AM 24.8 °F - 21.2 °F 86% 30.04 in 1.8 mi Calm Calm - N/A   Overcast
6:24 AM 23.0 °F - 19.4 °F 86% 30.04 in 0.8 mi Calm Calm - N/A   Overcast
6:48 AM 23.0 °F - 21.2 °F 93% 30.04 in 1.5 mi Calm Calm - N/A   Overcast
6:53 AM 23.0 °F - 19.9 °F 88% 30.04 in 1.5 mi Calm Calm - N/A   Overcast
7:51 AM 23.0 °F - 21.2 °F 93% 30.03 in 3.0 mi Calm Calm - N/A   Overcast
7:53 AM 21.9 °F - 21.0 °F 96% 30.04 in 3.0 mi Calm Calm - N/A   Overcast
8:53 AM 24.1 °F - 21.9 °F 91% 30.03 in 1.2 mi Calm Calm - N/A   Overcast
9:13 AM 24.8 °F 20.5 °F 21.2 °F 86% 30.02 in 3.0 mi ENE 3.5 mph - N/A   Overcast
9:41 AM 26.6 °F 21.2 °F 23.0 °F 86% 30.02 in 2.5 mi ENE 4.6 mph - N/A   Overcast
9:48 AM 26.6 °F 21.2 °F 23.0 °F 86% 30.03 in 0.8 mi ENE 4.6 mph - 0.00 in Snow Light Snow
9:49 AM 26.6 °F 21.2 °F 23.0 °F 86% 30.03 in 0.8 mi ENE 4.6 mph - 0.00 in Snow Light Snow
9:53 AM 26.1 °F 20.5 °F 23.0 °F 88% 30.03 in 1.0 mi ENE 4.6 mph - 0.00 in Snow Light Snow
9:58 AM 26.6 °F 20.0 °F 23.0 °F 86% 30.03 in 3.0 mi ENE 5.8 mph - 0.00 in   Overcast
10:17 AM 26.6 °F 21.2 °F 24.8 °F 93% 30.03 in 10.0 mi ENE 4.6 mph - 0.00 in   Overcast
10:53 AM 26.1 °F 21.9 °F 24.1 °F 92% 30.03 in 10.0 mi ENE 3.5 mph - 0.00 in   Overcast
11:53 AM 26.1 °F - 23.0 °F 88% 30.02 in 10.0 mi Calm Calm - N/A   Overcast
12:53 PM 28.0 °F - 24.1 °F 85% 30.01 in 10.0 mi Calm Calm - N/A   Overcast
1:36 PM 28.4 °F 24.6 °F 24.8 °F 86% 30.01 in 10.0 mi ENE 3.5 mph - N/A   Overcast
1:53 PM 28.0 °F - 24.1 °F 85% 30.01 in 10.0 mi Calm Calm - N/A   Overcast
2:07 PM 28.4 °F 23.3 °F 24.8 °F 86% 30.01 in 10.0 mi ENE 4.6 mph - N/A   Overcast
2:28 PM 28.4 °F 23.3 °F 24.8 °F 86% 30.01 in 10.0 mi ENE 4.6 mph - N/A   Overcast
2:50 PM 28.4 °F 21.2 °F 24.8 °F 86% 30.00 in 10.0 mi ENE 6.9 mph - N/A   Overcast
2:53 PM 28.0 °F 20.8 °F 24.1 °F 85% 30.01 in 10.0 mi ENE 6.9 mph - N/A   Overcast
3:53 PM 28.0 °F 24.2 °F 24.1 °F 85% 30.00 in 10.0 mi NE 3.5 mph - N/A   Overcast
5:53 PM 28.0 °F 24.2 °F 23.0 °F 81% 29.98 in 10.0 mi NE 3.5 mph - N/A   Overcast
6:15 PM 28.4 °F - 23.0 °F 80% 29.98 in 10.0 mi Calm Calm - N/A   Overcast
6:37 PM 28.4 °F 24.6 °F 23.0 °F 80% 29.97 in 10.0 mi NE 3.5 mph - N/A   Overcast
7:31 PM 26.6 °F 22.6 °F 23.0 °F 86% 29.97 in 10.0 mi ENE 3.5 mph - N/A   Overcast
8:53 PM 25.0 °F 20.7 °F 21.9 °F 88% 29.97 in 10.0 mi ENE 3.5 mph - N/A   Overcast
9:28 PM 23.0 °F 15.8 °F 21.2 °F 93% 29.96 in 2.0 mi ENE 5.8 mph - N/A   Overcast
9:53 PM 23.0 °F 15.8 °F 19.9 °F 88% 29.97 in 2.0 mi East 5.8 mph - N/A   Overcast
10:00 PM 23.0 °F 15.8 °F 19.4 °F 86% 29.96 in 0.8 mi East 5.8 mph - N/A   Overcast
10:12 PM 23.0 °F 17.0 °F 21.2 °F 93% 29.96 in 2.0 mi ESE 4.6 mph - N/A   Overcast
10:19 PM 23.0 °F 14.7 °F 19.4 °F 86% 29.96 in 9.0 mi East 6.9 mph - N/A   Overcast
10:37 PM 21.2 °F 13.6 °F 19.4 °F 93% 29.96 in 10.0 mi ESE 5.8 mph - N/A   Mostly Cloudy
10:53 PM 21.9 °F 13.4 °F 19.0 °F 89% 29.96 in 10.0 mi ESE 6.9 mph - N/A   Scattered Clouds
11:41 PM 23.0 °F 18.4 °F 21.2 °F 93% 29.95 in 1.5 mi ESE 3.5 mph - N/A   Mostly Cloudy
11:50 PM 23.0 °F - 21.2 °F 93% 29.95 in 0.5 mi Calm Calm - N/A Fog Light Freezing Fog
11:53 PM 23.0 °F - 21.0 °F 92% 29.96 in 0.5 mi Calm Calm - N/A Fog Light Freezing Fog